Regional Weather Roundup
Issued by NWS

Home | Current Version | Previous Version | Graphics & Text | Print | Product List | Glossary On
Versions: 1 2 3 4 5 6 7 8 9 10 11 12 13 14 15 16 17 18 19 20 21 22 23 24 25 26 27 28
000
ASUS45 KCYS 220710
RWRWY

WYOMING REGIONAL WEATHER ROUNDUP
NATIONAL WEATHER SERVICE CHEYENNE WY
100 AM MDT FRI SEP 22 2017

NOTE:  "FAIR" INDICATES FEW OR NO CLOUDS BELOW 12,000 FEET
WITH NO SIGNIFICANT WEATHER AND/OR OBSTRUCTIONS TO VISIBILITY.

WYZ001-220800-
YELLOWSTONE NATIONAL PARK

CITY           SKY/WX    TMP DP  RH WIND       PRES   REMARKS
LK YELLOWSTONE NOT AVBL
W YELLOWSTONE  NOT AVBL

$$
WYZ002>013-054>058-071-098>099-220800-
NORTHERN WYOMING

CITY           SKY/WX    TMP DP  RH WIND       PRES   REMARKS
JACKSON        CLOUDY    33  32  96 CALM      29.80R
CODY           LGT RAIN  37  33  85 N12G24    29.90R WCI  29
GREYBULL       CLOUDY    43  39  86 W15       29.83S
WORLAND        CLOUDY    44  39  82 N7        29.84R
SHERIDAN       CLOUDY    46  41  82 W8        29.92R
BUFFALO        CLOUDY    45  34  65 NW8       29.91S
GILLETTE       FAIR      41  34  76 N9        29.85S
HULETT         FAIR      45  32  61 NE7       29.86F
NEWCASTLE      FAIR      55  36  47 N5        29.74F

$$
WYZ014>020-022>026-101>103-220800-
CENTRAL WYOMING

CITY           SKY/WX    TMP DP  RH WIND       PRES   REMARKS
BIG PINEY      LGT RAIN  47  41  80 W15G21    29.79R
PINEDALE       RAIN      43  43 100 W8        29.77S
DUBOIS         LGT RAIN  37  36  93 SE14G22   29.79S WCI  29
LANDER           N/A    N/A N/A N/A MISG      29.79R
RIVERTON       MOCLDY    42  37  82 N8        29.78S
CASPER         MOCLDY    41  34  76 NE13      29.85S
DOUGLAS        FAIR      44  34  67 NW10      29.82F

$$
WYZ021-027>030-104>119-220800-
SOUTHERN WYOMING

CITY           SKY/WX    TMP DP  RH WIND       PRES   REMARKS
EVANSTON       SNOW      33  33 100 SW12      29.83S VSB 1/2 WCI  24
KEMMERER         N/A     36  34  93 W15G25    29.80S WCI  26
FORT BRIDGER   CLOUDY    38  37  98 W25G35    29.81F WCI  26
ROCK SPRINGS   CLOUDY    48  39  71 NW13      29.78R
DIXON          FAIR      65  17  15 S12       29.78S
RAWLINS        FAIR      51  25  36 SE3       29.78S
SARATOGA       FAIR      52  25  35 S9        29.81F
LARAMIE        FAIR      43  21  41 CALM      29.83S
CHEYENNE       FAIR      54  36  50 N17G29    29.76R
TORRINGTON     FAIR      56  39  53 N8        29.67R
PINE BLUFFS    FAIR      54  28  37 W8        29.70R

$$




USA.gov is the U.S. government's official web portal to all federal, state and local government web resources and services.